Date,TemperatureHighF,TemperatureAvgF,TemperatureLowF,DewpointHighF,DewpointAvgF,DewpointLowF,HumidityHigh,HumidityAvg,HumidityLow,PressureMaxIn,PressureMinIn,WindSpeedMaxMPH,WindSpeedAvgMPH,GustSpeedMaxMPH,PrecipitationSumIn
2013-3-1,78.0,60.1,52.0,50.0,44.6,36.0,80,58,31,0.00,40.00,5,3,13,0.00
2013-3-2,73.0,59.2,50.0,50.0,42.3,33.0,93,57,33,0.00,40.00,5,3,13,0.00
2013-3-3,69.0,53.3,44.0,51.0,46.7,41.0,95,80,39,0.00,40.00,5,2,19,0.00
2013-3-4,59.0,48.0,41.0,48.0,43.3,40.0,97,85,65,0.00,40.00,6,2,12,0.00
2013-3-5,54.0,48.6,41.0,45.0,41.8,40.0,97,78,62,0.00,40.00,6,3,17,0.03
2013-3-6,56.0,50.2,41.0,50.0,44.8,40.0,97,83,58,0.00,40.00,5,2,17,0.78
2013-3-7,56.0,48.4,41.0,45.0,40.7,36.0,96,75,61,0.00,40.00,6,3,14,0.24
2013-3-8,57.0,48.0,42.0,47.0,42.0,38.0,98,82,59,0.00,40.00,6,3,17,0.25
2013-3-9,61.0,52.5,42.0,47.0,41.7,37.0,92,67,58,0.00,40.00,5,3,15,0.00
2013-3-10,63.0,51.8,40.0,49.0,42.9,34.0,96,73,47,0.00,40.00,4,2,11,0.00
2013-3-11,68.0,52.9,41.0,47.0,39.8,32.0,96,64,36,0.00,40.00,5,2,10,0.00
2013-3-12,72.0,52.9,45.0,51.0,44.0,37.0,95,73,39,0.00,40.00,6,2,10,0.00
2013-3-13,79.0,56.4,45.0,53.0,47.4,43.0,97,75,31,0.00,40.00,5,2,11,0.00
2013-3-14,72.0,53.1,43.0,54.0,45.4,38.0,97,77,46,0.00,40.00,4,2,16,0.00
2013-3-15,78.0,56.2,44.0,50.0,45.9,42.0,96,72,35,0.00,40.00,4,2,10,0.00
2013-3-16,74.0,52.6,41.0,50.0,43.2,40.0,97,74,31,0.00,40.00,6,2,14,0.00
2013-3-17,71.0,54.2,44.0,47.0,41.6,34.0,84,64,37,0.00,40.00,5,3,13,0.00
2013-3-18,70.0,49.0,38.0,47.0,41.2,33.0,90,77,28,0.00,40.00,5,2,13,0.00
2013-3-19,74.0,58.0,44.0,48.0,42.7,33.0,93,58,28,0.00,40.00,9,3,20,0.02
2013-3-20,69.0,56.1,48.0,51.0,46.8,35.0,96,73,37,0.00,40.00,4,2,15,0.02
2013-3-21,67.0,51.9,41.0,47.0,43.8,39.0,98,77,48,0.00,40.00,4,2,9,0.00
2013-3-22,76.0,53.8,40.0,40.0,30.1,0.0,93,48,5,0.00,40.00,7,3,24,0.00
2013-3-23,70.0,56.0,38.0,41.0,32.3,21.0,81,46,16,0.00,40.00,5,2,10,0.00
2013-3-24,71.0,51.3,41.0,47.0,40.2,32.0,93,70,25,0.00,40.00,4,2,10,0.00
2013-3-25,73.0,48.8,41.0,50.0,42.6,40.0,97,82,36,0.00,40.00,4,1,8,0.00
2013-3-26,62.0,51.1,38.0,47.0,44.2,37.0,96,79,56,0.00,40.00,5,2,13,0.00
2013-3-27,63.0,51.4,43.0,52.0,46.0,42.0,97,84,62,0.00,40.00,6,2,13,0.00
2013-3-28,66.0,57.8,48.0,53.0,50.6,47.0,97,78,62,0.00,40.00,5,2,14,0.00
2013-3-29,68.0,56.0,43.0,51.0,48.1,42.0,98,78,49,0.00,40.00,4,2,15,0.00
2013-3-30,64.0,55.5,49.0,54.0,48.3,-99.9,96,83,56,0.00,40.00,8,4,17,0.39
2013-3-31,62.0,56.3,51.0,54.0,51.4,50.0,97,84,65,0.00,40.00,7,4,15,0.47